Regional Weather Roundup
Issued by NWS

Home | Current Version | Previous Version | Graphics & Text | Print | Product List | Glossary On
Versions: 1 2 3 4 5 6 7 8 9 10 11 12 13 14 15 16 17 18 19 20 21 22 23 24 25 26 27 28 29 30 31 32 33 34 35 36 37 38 39 40 41 42 43 44 45 46 47 48 49 50
000
ASUS43 KLSX 191910
RWRMO

WEATHER SUMMARY FOR MISSOURI
NATIONAL WEATHER SERVICE SPRINGFIELD MO
100 PM CST THU JAN 19 2017

NOTE: "FAIR" INDICATES FEW OR NO CLOUDS BELOW 12,000 FEET WITH NO
       SIGNIFICANT WEATHER AND/OR OBSTRUCTIONS TO VISIBILITY.
       CURRENT SKY AND/OR WEATHER CONDITIONS ARE NOT AVAILABLE FOR
       CHILLICOTHE AND FARMINGTON.

MOZ001>031-035>038-043-044-053-054-192000-
...NORTHERN AND WESTERN MISSOURI...

CITY           SKY/WX    TMP DP  RH WIND       PRES   REMARKS
KANSAS CTY INT CLOUDY    47  44  90 SE6       29.71F FOG
KANSAS C DTWN  CLOUDY    49  46  90 S6        29.72F
LEE`S SUMMIT   CLOUDY    46  46 100 SE9       29.73F FOG
ST JOSEPH      CLOUDY    47  46  97 SE6       29.73F
CHILLICOTHE      N/A     45  45 100 S3        29.76F
KIRKSVILLE     FOG       43  43 100 SE6       29.75F VSB 1/4

$$
MOZ066>068-077>081-088>096-101>105-192000-
...SOUTHWEST MISSOURI...

CITY           SKY/WX    TMP DP  RH WIND       PRES   REMARKS
SPRINGFIELD    CLOUDY    51  48  89 S6        29.71F
JOPLIN         CLOUDY    52  48  86 SE9       29.72F
BRANSON        CLOUDY    48  48 100 SE3       29.74F FOG

$$
MOZ032>034-039>042-045>050-055>058-069>072-192000-
...CENTRAL MISSOURI...

CITY           SKY/WX    TMP DP  RH WIND       PRES   REMARKS
COLUMBIA       CLOUDY    46  46 100 S7        29.75F
JEFFERSON CITY CLOUDY    48  45  89 E3        29.76F
ROLLA          CLOUDY    49  48  97 S6        29.74F
SEDALIA        CLOUDY    50  46  86 S5        29.75F FOG
WHITEMAN AFB   DRIZZLE   49  49 100 S3        29.73F FOG
WARRENSBURG    CLOUDY    46  45  93 SE8       29.74F FOG
OSAGE BEACH    CLOUDY    48  46  93 SE3       29.75F

$$
MOZ051-052-059>065-192000-
...EAST CENTRAL MISSOURI...

CITY           SKY/WX    TMP DP  RH WIND       PRES   REMARKS
ST LOUIS INTL  LGT RAIN  47  44  90 E6        29.80F FOG
SPIRIT OF STL  LGT RAIN  46  45  96 E5        29.79F VSB 1
ST CHARLES     CLOUDY    45  44  97 E5        29.80F FOG

$$
MOZ072>076-082>087-097>100-106>115-192000-
...SOUTH CENTRAL AND SOUTHEAST MISSOURI...

CITY           SKY/WX    TMP DP  RH WIND       PRES   REMARKS
CAPE GIRARDEAU CLOUDY    50  48  93 CALM      29.79F FOG
POPLAR BLUFF   FOG       49  49 100 NE6       29.77F VSB 1/2
WEST PLAINS    FOG       48  48 100 SE5       29.76F VSB 1/4

$$




USA.gov is the U.S. government's official web portal to all federal, state and local government web resources and services.